Mark Borodin

Scout - Zenit
2 Jun 2028
Freitag
Verarbeitung

Persönlichkeit

Anpassungsfähigkeit (16) Ehrgeiz (1) Kontroverse (6) Loyalität (15) Druck (19) Professionalität (6) Fairness (2) Temperament (11)

Profil

Trainerstil Demokratisch
Lizenz Nationale A
Entschlossenheit 7
Menschenführung 15
Motivation 12
Disziplin 6
Arbeitszufriedenheit
100%
Ermüdung
0%
Rolle Scout
Gehalt 66.5K p/W
Vertrag 14.03.2029

Leistung

Verhalten Gut
Trainingseffektivität
51%
Spielerentwicklung
35%
Verletzungsprävention
65%
Taktische Umsetzung
30%

Aktuell beobachtet

46
Spieler Verein Status Fähigkeit Vertrauen Beobachtet Zuletzt beobachtet Letzte Stimme
Marcus Tavernier Bournemouth Aktiv 162 / 148 40% 2 22.02.2028 -
Assane Diao Como Aktiv 162 / 150 40% 1 22.02.2028 -
Rubens Dinamo Moscow Aktiv 134 / 134 40% 1 19.02.2028 -
Óscar Mingueza Crystal Palace Aktiv 154 / 150 40% 1 19.02.2028 -
Mohamed-Ali Cho Hull City Aktiv 131 / 149 40% 1 17.02.2028 -
Bitello Dinamo Moscow Aktiv 138 / 136 40% 1 17.02.2028 -
Koki Saito Queens Park Rangers Aktiv 129 / 137 40% 1 17.02.2028 -
Chemsdine Talbi Sunderland Aktiv 137 / 145 40% 1 16.02.2028 -
Gonzalo Fulham Aktiv 161 / 152 40% 1 13.02.2028 -
Carlos Vicente Birmingham Aktiv 145 / 147 40% 1 13.02.2028 -
Nicolás González Juventus Aktiv 149 / 157 40% 1 11.02.2028 -
Zito Luvumbo Cagliari Aktiv 145 / 132 40% 1 11.02.2028 -
Damián Puebla Dinamo Moscow Abgelehnt 123 / 128 40% 1 11.02.2028 Mehr Infos nötig
Javi Puado Espanyol Aktiv 138 / 149 40% 2 08.02.2028 -
Damián Bobadilla Sport Recife Aktiv 131 / 128 40% 1 08.02.2028 -
Samuel Chukwueze AC Milan Aktiv 143 / 148 40% 1 08.02.2028 -
Matteo Ruggeri Aston Villa Aktiv 154 / 158 40% 1 07.02.2028 -
Ilias Akhomach Villarreal Aktiv 136 / 150 40% 1 07.02.2028 -
Christian Krasnodar Verloren 129 / 134 40% 2 28.01.2028 -
Todd Cantwell Blackburn Rovers Verloren 136 / 130 40% 1 28.01.2028 -
Luca Langoni Besiktas Verloren 134 / 139 40% 1 28.01.2028 -
Matvey Kislyak CSKA Moscow Aktiv 137 / 136 40% 2 30.08.2027 -
Alexandr Chernikov Krasnodar Aktiv 133 / 132 40% 1 30.08.2027 -
Gerard Martín Barcelona Aktiv 163 / 147 40% 1 16.08.2027 -
Gustavo Hamer Sheffield United Aktiv 150 / 141 40% 1 05.08.2027 -
Alex Bangura Middlesbrough Aktiv 129 / 129 40% 3 04.08.2027 -
Josh King Chelsea Aktiv 147 / 153 40% 2 04.08.2027 -
Imrân Louza Watford Aktiv 123 / 144 40% 1 04.08.2027 -
Brodie Spencer Oxford United Aktiv 134 / 123 40% 1 01.08.2027 -
Michel Ndary Adopo Cagliari Aktiv 135 / 141 40% 1 31.07.2027 -
Federico Baschirotto Cremonese Aktiv 135 / 139 40% 2 27.07.2027 -
Jesús Vázquez Valencia Aktiv 153 / 139 40% 1 19.07.2027 -
Danil Glebov Dinamo Moscow Aktiv 138 / 136 40% 1 14.07.2027 -
Juan Cáceres Dinamo Moscow Aktiv 137 / 123 40% 1 14.07.2027 -
Mahmoud Al Hashmi CSKA Moscow Abgelehnt 140 / 122 40% 1 13.07.2027 Mehr Infos nötig
Thijs Dallinga Bologna Aktiv 124 / 130 40% 3 12.07.2027 -
Mateo Joseph Leeds United Aktiv 136 / 126 40% 1 04.07.2027 -
Ivan Oblyakov CSKA Moscow Aktiv 136 / 126 40% 1 04.07.2027 -
Ciprian Dragusin Krasnodar Aktiv 147 / 142 40% 2 26.06.2027 -
Ransford Königsdörffer Mainz 05 Aktiv 141 / 127 40% 3 25.06.2027 -
Alexandr Siljanov Lokomotiv Moscow Aktiv 135 / 134 40% 1 24.06.2027 -
Álex Calatrava Espanyol Aktiv 143 / 139 40% 1 22.06.2027 -
Eliás Montiel Athletic Bilbao Aktiv 133 / 131 40% 1 22.06.2027 -
Batxi Krasnodar Aktiv 132 / 133 40% 1 21.06.2027 -
Kasper Høgh Flamengo Aktiv 127 / 137 40% 1 20.06.2027 -
Younes Ebnoutalib Eintracht Frankfurt Aktiv 144 / 139 40% 2 17.06.2027 -